Terminal Aerodrome Forecast
Issued by NWS

Home | Current Version | Previous Version | Text Only | Print | Product List | Glossary On
Versions: 1 2 3 4 5 6 7 8 9 10 11 12 13 14 15 16 17 18 19 20 21 22 23 24 25 26 27 28 29 30 31 32 33 34 35 36 37 38 39 40 41 42 43 44 45 46 47 48 49 50
000
FTUS42 KMFL 190903 AAA
TAFOPF
TAF AMD
KOPF 190903Z 1909/2006 VRB03KT P6SM FEW035 SCT250
     FM191400 13006KT P6SM SCT040
     FM191800 16008KT P6SM SCT030 PROB30 1918/1922 6SM TS BKN030CB
     FM200000 03005KT P6SM VCSH SCT030 BKN070=

USA.gov is the U.S. government's official web portal to all federal, state and local government web resources and services.